Time,TemperatureF,DewpointF,PressureIn,WindDirection,WindDirectionDegrees,WindSpeedMPH,WindSpeedGustMPH,Humidity,HourlyPrecipIn,Conditions,Clouds,dailyrainin,SoftwareType,DateUTC
2013-10-30 00:00:00,47.0,41.0,-100.00,ESE,111,3.0,-999.0,80,0.00,,,-99.99,,2013-10-30 07:00:00,
2013-10-30 00:42:00,47.0,41.0,-100.00,ESE,111,3.0,-999.0,80,0.00,,,-99.99,,2013-10-30 07:42:00,
2013-10-30 00:52:00,47.0,41.0,-100.00,ESE,111,3.0,-999.0,80,0.00,,,-99.99,,2013-10-30 07:52:00,
2013-10-30 01:00:00,46.0,41.0,-100.00,NE,56,0.0,-999.0,81,0.00,,,-99.99,,2013-10-30 08:00:00,
2013-10-30 01:42:00,46.0,41.0,-100.00,NE,56,0.0,-999.0,81,0.00,,,-99.99,,2013-10-30 08:42:00,
2013-10-30 01:52:00,46.0,41.0,-100.00,NE,56,0.0,-999.0,81,0.00,,,-99.99,,2013-10-30 08:52:00,
2013-10-30 02:00:00,44.0,40.0,-100.00,SSW,207,3.0,-999.0,84,0.00,,,-99.99,,2013-10-30 09:00:00,
2013-10-30 02:43:00,44.0,40.0,-100.00,SSW,207,3.0,-999.0,84,0.00,,,-99.99,,2013-10-30 09:43:00,
2013-10-30 02:54:00,44.0,40.0,-100.00,SSW,207,3.0,-999.0,84,0.00,,,-99.99,,2013-10-30 09:54:00,
2013-10-30 03:00:00,45.0,39.0,-100.00,ESE,114,3.0,-999.0,79,0.00,,,-99.99,,2013-10-30 10:00:00,
2013-10-30 03:43:00,45.0,39.0,-100.00,ESE,114,3.0,-999.0,79,0.00,,,-99.99,,2013-10-30 10:43:00,
2013-10-30 03:53:00,45.0,39.0,-100.00,ESE,114,3.0,-999.0,79,0.00,,,-99.99,,2013-10-30 10:53:00,
2013-10-30 04:00:00,43.0,40.0,-100.00,SSE,147,3.0,-999.0,87,0.00,,,-99.99,,2013-10-30 11:00:00,
2013-10-30 04:42:00,43.0,40.0,-100.00,SSE,147,3.0,-999.0,87,0.00,,,-99.99,,2013-10-30 11:42:00,
2013-10-30 04:52:00,43.0,40.0,-100.00,SSE,147,3.0,-999.0,87,0.00,,,-99.99,,2013-10-30 11:52:00,
2013-10-30 05:00:00,44.0,40.0,-100.00,SSE,162,3.0,-999.0,85,0.00,,,-99.99,,2013-10-30 12:00:00,
2013-10-30 05:42:00,44.0,40.0,-100.00,SSE,162,3.0,-999.0,85,0.00,,,-99.99,,2013-10-30 12:42:00,
2013-10-30 05:52:00,44.0,40.0,-100.00,SSE,162,3.0,-999.0,85,0.00,,,-99.99,,2013-10-30 12:52:00,
2013-10-30 06:00:00,43.0,39.0,-100.00,SSE,166,4.0,-999.0,86,0.00,,,-99.99,,2013-10-30 13:00:00,
2013-10-30 06:42:00,43.0,39.0,-100.00,SSE,166,4.0,-999.0,86,0.00,,,-99.99,,2013-10-30 13:42:00,
2013-10-30 06:52:00,43.0,39.0,-100.00,SSE,166,4.0,-999.0,86,0.00,,,-99.99,,2013-10-30 13:52:00,
2013-10-30 07:00:00,43.0,39.0,-100.00,SE,125,3.0,-999.0,85,0.00,,,-99.99,,2013-10-30 14:00:00,
2013-10-30 07:42:00,43.0,39.0,-100.00,SE,125,3.0,-999.0,85,0.00,,,-99.99,,2013-10-30 14:42:00,
2013-10-30 07:52:00,43.0,39.0,-100.00,SE,125,3.0,-999.0,85,0.00,,,-99.99,,2013-10-30 14:52:00,
2013-10-30 08:00:00,41.0,38.0,-100.00,SE,135,4.0,-999.0,87,0.00,,,-99.99,,2013-10-30 15:00:00,
2013-10-30 08:43:00,41.0,38.0,-100.00,SE,135,4.0,-999.0,87,0.00,,,-99.99,,2013-10-30 15:43:00,
2013-10-30 08:54:00,41.0,38.0,-100.00,SE,135,4.0,-999.0,87,0.00,,,-99.99,,2013-10-30 15:54:00,
2013-10-30 09:00:00,47.0,42.0,-100.00,SE,129,4.0,-999.0,82,0.00,,,-99.99,,2013-10-30 16:00:00,
2013-10-30 09:43:00,47.0,42.0,-100.00,SE,129,4.0,-999.0,82,0.00,,,-99.99,,2013-10-30 16:43:00,
2013-10-30 09:53:00,47.0,42.0,-100.00,SE,129,4.0,-999.0,82,0.00,,,-99.99,,2013-10-30 16:53:00,
2013-10-30 10:00:00,53.0,43.0,-100.00,SW,218,4.0,-999.0,67,0.00,,,-99.99,,2013-10-30 17:00:00,
2013-10-30 10:42:00,53.0,43.0,-100.00,SW,218,4.0,-999.0,67,0.00,,,-99.99,,2013-10-30 17:42:00,
2013-10-30 10:52:00,53.0,43.0,-100.00,SW,218,4.0,-999.0,67,0.00,,,-99.99,,2013-10-30 17:52:00,
2013-10-30 11:00:00,57.0,44.0,-100.00,SW,226,5.0,-999.0,60,0.00,,,-99.99,,2013-10-30 18:00:00,
2013-10-30 11:42:00,57.0,44.0,-100.00,SW,226,5.0,-999.0,60,0.00,,,-99.99,,2013-10-30 18:42:00,
2013-10-30 11:52:00,57.0,44.0,-100.00,SW,226,5.0,-999.0,60,0.00,,,-99.99,,2013-10-30 18:52:00,
2013-10-30 12:00:00,60.0,43.0,-100.00,SW,236,5.0,-999.0,53,0.00,,,-99.99,,2013-10-30 19:00:00,
2013-10-30 12:42:00,60.0,43.0,-100.00,SW,236,5.0,-999.0,53,0.00,,,-99.99,,2013-10-30 19:42:00,
2013-10-30 12:52:00,60.0,43.0,-100.00,SW,236,5.0,-999.0,53,0.00,,,-99.99,,2013-10-30 19:52:00,
2013-10-30 13:00:00,63.0,42.0,-100.00,NW,305,2.0,-999.0,46,0.00,,,-99.99,,2013-10-30 20:00:00,
2013-10-30 13:42:00,63.0,42.0,-100.00,NW,305,2.0,-999.0,46,0.00,,,-99.99,,2013-10-30 20:42:00,
2013-10-30 13:52:00,63.0,42.0,-100.00,NW,305,2.0,-999.0,46,0.00,,,-99.99,,2013-10-30 20:52:00,
2013-10-30 14:00:00,64.0,40.0,-100.00,ENE,68,4.0,-999.0,40,0.00,,,-99.99,,2013-10-30 21:00:00,
2013-10-30 14:43:00,64.0,40.0,-100.00,ENE,68,4.0,-999.0,40,0.00,,,-99.99,,2013-10-30 21:43:00,
2013-10-30 14:53:00,64.0,40.0,-100.00,ENE,68,4.0,-999.0,40,0.00,,,-99.99,,2013-10-30 21:53:00,
2013-10-30 15:00:00,66.0,40.0,-100.00,WNW,298,8.0,-999.0,38,0.00,,,-99.99,,2013-10-30 22:00:00,
2013-10-30 15:43:00,66.0,40.0,-100.00,WNW,298,8.0,-999.0,38,0.00,,,-99.99,,2013-10-30 22:43:00,
2013-10-30 15:54:00,66.0,40.0,-100.00,WNW,298,8.0,-999.0,38,0.00,,,-99.99,,2013-10-30 22:54:00,
2013-10-30 16:00:00,66.0,39.0,-100.00,NW,320,5.0,-999.0,36,0.00,,,-99.99,,2013-10-30 23:00:00,
2013-10-30 16:42:00,66.0,39.0,-100.00,NW,320,5.0,-999.0,36,0.00,,,-99.99,,2013-10-30 23:42:00,
2013-10-30 16:53:00,66.0,39.0,-100.00,NW,320,5.0,-999.0,36,0.00,,,-99.99,,2013-10-30 23:53:00,
2013-10-30 17:00:00,66.0,38.0,-100.00,NNW,345,3.0,-999.0,36,0.00,,,-99.99,,2013-10-31 00:00:00,
2013-10-30 17:42:00,66.0,38.0,-100.00,NNW,345,3.0,-999.0,36,0.00,,,-99.99,,2013-10-31 00:42:00,
2013-10-30 17:52:00,66.0,38.0,-100.00,NNW,345,3.0,-999.0,36,0.00,,,-99.99,,2013-10-31 00:52:00,
2013-10-30 18:00:00,66.0,39.0,-100.00,NW,306,5.0,-999.0,37,0.00,,,-99.99,,2013-10-31 01:00:00,
2013-10-30 18:42:00,66.0,39.0,-100.00,NW,306,5.0,-999.0,37,0.00,,,-99.99,,2013-10-31 01:42:00,
2013-10-30 18:52:00,66.0,39.0,-100.00,NW,306,5.0,-999.0,37,0.00,,,-99.99,,2013-10-31 01:52:00,
2013-10-30 19:00:00,61.0,41.0,-100.00,WNW,282,3.0,-999.0,48,0.00,,,-99.99,,2013-10-31 02:00:00,
2013-10-30 19:52:00,61.0,41.0,-100.00,WNW,282,3.0,-999.0,48,0.00,,,-99.99,,2013-10-31 02:52:00,
2013-10-30 20:00:00,57.0,42.0,-100.00,ESE,115,1.0,-999.0,56,0.00,,,-99.99,,2013-10-31 03:00:00,
2013-10-30 20:44:00,57.0,42.0,-100.00,ESE,115,1.0,-999.0,56,0.00,,,-99.99,,2013-10-31 03:44:00,
2013-10-30 20:55:00,57.0,42.0,-100.00,ESE,115,1.0,-999.0,56,0.00,,,-99.99,,2013-10-31 03:55:00,
2013-10-30 21:00:00,53.0,43.0,-100.00,SE,124,3.0,-999.0,67,0.00,,,-99.99,,2013-10-31 04:00:00,
2013-10-30 21:43:00,53.0,43.0,-100.00,SE,124,3.0,-999.0,67,0.00,,,-99.99,,2013-10-31 04:43:00,
2013-10-30 21:54:00,53.0,43.0,-100.00,SE,124,3.0,-999.0,67,0.00,,,-99.99,,2013-10-31 04:54:00,
2013-10-30 22:00:00,51.0,42.0,-100.00,SSE,151,2.0,-999.0,71,0.00,,,-99.99,,2013-10-31 05:00:00,
2013-10-30 22:43:00,51.0,42.0,-100.00,SSE,151,2.0,-999.0,71,0.00,,,-99.99,,2013-10-31 05:43:00,
2013-10-30 22:52:00,51.0,42.0,-100.00,SSE,151,2.0,-999.0,71,0.00,,,-99.99,,2013-10-31 05:52:00,
2013-10-30 23:00:00,49.0,42.0,-100.00,SE,129,4.0,-999.0,76,0.00,,,-99.99,,2013-10-31 06:00:00,
2013-10-30 23:42:00,49.0,42.0,-100.00,SE,129,4.0,-999.0,76,0.00,,,-99.99,,2013-10-31 06:42:00,
2013-10-30 23:53:00,49.0,42.0,-100.00,SE,129,4.0,-999.0,76,0.00,,,-99.99,,2013-10-31 06:53:00,